Chamberlain, SD

10:53 AM CDT on July 23, 2017 (GMT -0500)
Chamberlain

Weather History for K9V9 - December, 2012

Change the Weather History Date:

Saturday, December 1, 2012

  Actual Average Record
Temperature  
Mean Temperature 47 °F -  
Max Temperature 62 °F 36 °F 70 °F (1998)
Min Temperature 32 °F 19 °F -6 °F (2014)
Degree Days  
Heating Degree Days 18    
Moisture  
Dew Point 29 °F    
Average Humidity 52    
Maximum Humidity 79    
Minimum Humidity 32    
Precipitation  
Precipitation 0.00 in - - ()
Sea Level Pressure  
Sea Level Pressure 29.78 in    
Wind  
Wind Speed 9 mph (WSW)    
Max Wind Speed 14 mph    
Max Gust Speed -    
Averages and records for this station are not official NWS values.
T = Trace of Precipitation, MM = Missing Value Source: NWS Daily Summary

Daily Weather History Graph

Daily Weather History Graph

Search for Another Location

Airport or City:

Trip Planner

Search our weather history database for the weather conditions in past years. The results will help you decide how hot, cold, wet, or windy it might be!

Date:

Astronomy

Dec. 01, 2012 Rise Set
Actual Time 7:51 AM CST 5:00 PM CST
Civil Twilight 7:19 AM CST 5:33 PM CST
Nautical Twilight 6:43 AM CST 6:09 PM CST
Astronomical Twilight 6:09 AM CST 6:43 PM CST
Moon 7:54 PM CST (12/1) 10:04 AM CST (12/1)
Length of Visible Light 10h 13m
Length of Day
9h 09m
Waning Gibbous, 91% of the Moon is Illuminated
Dec 1
Waning Gibbous
Dec 6
Last Quarter
Dec 13
New
Dec 19
First Quarter
Dec 28
Full

Hourly Weather History & Observations

Time (CST) Temp. Windchill Dew Point Humidity Pressure Visibility Wind Dir Wind Speed Gust Speed Precip Events Conditions
12:52 AM 42.1 °F 34.9 °F 28.0 °F 58% 29.76 in - South 13.8 mph - N/A   Unknown
1:52 AM 42.1 °F 34.9 °F 28.0 °F 58% 29.73 in - South 13.8 mph - N/A   Unknown
2:52 AM 41.0 °F 35.8 °F 28.0 °F 60% 29.71 in - South 8.1 mph - N/A   Unknown
3:52 AM 42.1 °F 38.4 °F 28.0 °F 58% 29.70 in - South 5.8 mph - N/A   Unknown
4:52 AM 41.0 °F 36.4 °F 27.0 °F 57% 29.69 in - SW 6.9 mph - N/A   Unknown
5:52 AM 45.0 °F 41.8 °F 28.0 °F 52% 29.70 in - WSW 5.8 mph - N/A   Unknown
6:52 AM 45.0 °F 39.3 °F 28.0 °F 52% 29.72 in - WSW 11.5 mph - N/A   Unknown
7:52 AM 46.0 °F - 28.0 °F 50% 29.74 in - North - - N/A   Unknown
8:52 AM 45.0 °F - 28.9 °F 53% 29.76 in - North - - N/A   Unknown
9:52 AM 48.9 °F - 30.0 °F 48% 29.76 in - WNW 9.2 mph - N/A   Unknown
10:52 AM 53.1 °F - 30.9 °F 43% 29.77 in - WNW 11.5 mph - N/A   Unknown
11:52 AM 57.9 °F - 30.9 °F 36% 29.76 in - WNW 9.2 mph - N/A   Unknown
12:52 PM 61.0 °F - 30.9 °F 32% 29.74 in - NW 10.4 mph - N/A   Unknown
1:52 PM 62.1 °F - 32.0 °F 32% 29.75 in - NNW 6.9 mph - N/A   Unknown
2:52 PM 59.0 °F - 30.9 °F 35% 29.75 in - North 6.9 mph - N/A   Unknown
3:52 PM 57.9 °F - 30.9 °F 36% 29.77 in - North 6.9 mph - N/A   Unknown
4:52 PM 50.0 °F - 30.0 °F 46% 29.81 in - Calm Calm - N/A   Unknown
5:52 PM 46.9 °F - 30.0 °F 52% 29.82 in - Calm Calm - N/A   Unknown
6:52 PM 44.1 °F - 28.9 °F 55% 29.83 in - Calm Calm - N/A   Unknown
7:52 PM 41.0 °F 37.1 °F 28.9 °F 62% 29.85 in - SW 5.8 mph - N/A   Unknown
8:52 PM 44.1 °F - 30.0 °F 58% 29.86 in - Calm Calm - N/A   Unknown
9:52 PM 32.0 °F 25.6 °F 24.1 °F 73% 29.88 in - SSE 6.9 mph - N/A   Unknown
10:52 PM 36.0 °F - 27.0 °F 70% 29.87 in - Calm Calm - N/A   Unknown
11:52 PM 32.0 °F 27.5 °F 26.1 °F 79% 29.89 in - East 4.6 mph - N/A   Unknown